Ludington, MI

9:18 AM EDT on October 21, 2019 (GMT -0400)
Mason County

Weather History for KLDM - August, 2019

Change the Weather History Date:

Saturday, August 3, 2019

  Actual Average Record
Temperature  
Mean Temperature 68 °F -  
Max Temperature 78 °F 79 °F 94 °F (1988)
Min Temperature 57 °F 58 °F 43 °F (1965)
Cooling Degree Days 2    
Growing Degree Days 18 (Base 50)    
Moisture  
Dew Point 63 °F    
Average Humidity 84    
Maximum Humidity 97    
Minimum Humidity 62    
Precipitation  
Precipitation 0.00 in - - ()
Sea Level Pressure  
Sea Level Pressure 30.06 in    
Wind  
Wind Speed 2 mph (WSW)    
Max Wind Speed 9 mph    
Max Gust Speed -    
Visibility 10 miles    
Events      
Averages and records for this station are not official NWS values.
T = Trace of Precipitation, MM = Missing Value Source: NWS Daily Summary

Daily Weather History Graph

Daily Weather History Graph

Search for Another Location

Airport or City:

Astronomy

Aug. 03, 2019 Rise Set
Actual Time 6:35 AM EDT 9:07 PM EDT
Civil Twilight 6:03 AM EDT 9:39 PM EDT
Nautical Twilight 5:22 AM EDT 10:20 PM EDT
Astronomical Twilight 4:35 AM EDT 11:06 PM EDT
Moon 9:32 AM EDT (8/3) 11:06 PM EDT (8/3)
Length of Visible Light 15h 36m
Length of Day
14h 31m
Waxing Crescent, 10% of the Moon is Illuminated
Aug 3
Waxing Crescent
Aug 7
First Quarter
Aug 15
Full
Aug 23
Last Quarter
Aug 30
New

Hourly Weather History & Observations

Time (EDT) Temp. Dew Point Humidity Pressure Visibility Wind Dir Wind Speed Gust Speed Precip Events Conditions
12:17 AM 60.4 °F 58.5 °F 93% 30.10 in 10.0 mi Calm Calm - N/A   Clear
12:35 AM 59.5 °F 58.3 °F 96% 30.10 in 10.0 mi Calm Calm - N/A   Clear
12:36 AM 59.9 °F 58.5 °F 95% 30.10 in 10.0 mi Calm Calm - N/A   Clear
12:55 AM 60.3 °F 58.5 °F 94% 30.10 in 10.0 mi Calm Calm - N/A   Clear
12:56 AM 60.3 °F 58.5 °F 94% 30.10 in 10.0 mi Calm Calm - N/A   Clear
1:15 AM 59.0 °F 57.6 °F 95% 30.09 in 10.0 mi Calm Calm - N/A   Clear
1:20 AM 58.5 °F 57.0 °F 95% 30.09 in 10.0 mi Calm Calm - N/A   Clear
1:38 AM 59.2 °F 57.9 °F 96% 30.10 in 10.0 mi Calm Calm - N/A   Clear
1:56 AM 58.5 °F 57.4 °F 96% 30.10 in 10.0 mi Calm Calm - N/A   Clear
2:15 AM 57.6 °F 56.7 °F 97% 30.10 in 10.0 mi Calm Calm - N/A   Clear
2:35 AM 58.3 °F 57.2 °F 96% 30.10 in 10.0 mi Calm Calm - N/A   Clear
2:36 AM 58.3 °F 57.2 °F 96% 30.10 in 10.0 mi Calm Calm - N/A   Clear
2:59 AM 58.3 °F 57.0 °F 96% 30.09 in 10.0 mi Calm Calm - N/A   Clear
3:17 AM 58.5 °F 57.4 °F 96% 30.09 in 10.0 mi Calm Calm - N/A   Clear
3:35 AM 58.3 °F 57.4 °F 97% 30.09 in 10.0 mi Calm Calm - N/A   Scattered Clouds
3:55 AM 57.6 °F 56.8 °F 97% 30.10 in 10.0 mi Calm Calm - N/A   Mostly Cloudy
4:15 AM 59.2 °F 58.1 °F 96% 30.10 in 10.0 mi Calm Calm - N/A   Overcast
4:20 AM 59.2 °F 58.1 °F 96% 30.09 in 10.0 mi Calm Calm - N/A   Overcast
4:38 AM 59.9 °F 58.1 °F 94% 30.09 in 10.0 mi Calm Calm - N/A   Overcast
4:56 AM 60.4 °F 58.3 °F 93% 30.09 in 10.0 mi Calm Calm - N/A   Overcast
5:15 AM 62.4 °F 60.1 °F 92% 30.08 in 10.0 mi Calm Calm - N/A   Scattered Clouds
5:35 AM 59.4 °F 57.9 °F 95% 30.08 in 10.0 mi Calm Calm - N/A   Clear
5:59 AM 59.7 °F 58.8 °F 97% 30.09 in 10.0 mi Calm Calm - N/A   Clear
6:17 AM 58.6 °F 57.9 °F 97% 30.09 in 10.0 mi Calm Calm - N/A   Clear
6:36 AM 58.6 °F 57.9 °F 97% 30.09 in 10.0 mi Calm Calm - N/A   Clear
6:55 AM 59.0 °F 58.1 °F 97% 30.09 in 10.0 mi Calm Calm - N/A   Clear
7:15 AM 59.9 °F 59.2 °F 97% 30.09 in 10.0 mi Calm Calm - N/A   Clear
7:38 AM 61.5 °F 60.6 °F 97% 30.09 in 10.0 mi Calm Calm - N/A   Clear
7:56 AM 63.1 °F 62.1 °F 96% 30.09 in 10.0 mi Calm Calm - N/A   Clear
8:15 AM 64.2 °F 62.6 °F 94% 30.09 in 10.0 mi Calm Calm - N/A   Clear
8:35 AM 69.3 °F 65.5 °F 88% 30.10 in 10.0 mi WSW 4.6 mph - N/A   Clear
8:59 AM 69.4 °F 65.3 °F 87% 30.09 in 10.0 mi WSW 5.8 mph - N/A   Clear
9:17 AM 71.1 °F 66.0 °F 84% 30.09 in 10.0 mi WSW 6.9 mph - N/A   Clear
9:36 AM 73.2 °F 66.6 °F 80% 30.09 in 10.0 mi SW 5.8 mph - N/A   Clear
9:55 AM 73.2 °F 66.0 °F 78% 30.09 in 10.0 mi WSW 6.9 mph - N/A   Clear
10:15 AM 73.8 °F 66.6 °F 78% 30.09 in 10.0 mi WSW 8.1 mph - N/A   Clear
10:38 AM 74.1 °F 66.0 °F 76% 30.09 in 10.0 mi WSW 9.2 mph - N/A   Clear
10:56 AM 74.3 °F 65.8 °F 75% 30.09 in 10.0 mi WSW 8.1 mph - N/A   Clear
11:15 AM 74.7 °F 65.7 °F 73% 30.09 in 10.0 mi West 6.9 mph - N/A   Scattered Clouds
11:16 AM 74.5 °F 65.7 °F 74% 30.09 in 10.0 mi WSW 6.9 mph - N/A   Scattered Clouds
11:35 AM 74.5 °F 65.8 °F 74% 30.08 in 10.0 mi WSW 6.9 mph - N/A   Clear
11:59 AM 75.2 °F 66.7 °F 75% 30.08 in 10.0 mi West 6.9 mph - N/A   Clear
12:17 PM 75.7 °F 66.7 °F 74% 30.08 in 10.0 mi West 5.8 mph - N/A   Clear
12:35 PM 73.6 °F 64.8 °F 74% 30.08 in 10.0 mi WSW 8.1 mph - N/A   Clear
12:36 PM 73.6 °F 64.8 °F 74% 30.08 in 10.0 mi WSW 6.9 mph - N/A   Clear
12:55 PM 74.8 °F 66.0 °F 74% 30.07 in 10.0 mi WSW 6.9 mph - N/A   Clear
1:15 PM 75.9 °F 66.7 °F 73% 30.07 in 10.0 mi SW 9.2 mph - N/A   Clear
1:38 PM 76.1 °F 66.9 °F 73% 30.06 in 10.0 mi WSW 6.9 mph - N/A   Clear
1:56 PM 76.1 °F 66.9 °F 73% 30.06 in 10.0 mi WSW 9.2 mph - N/A   Clear
2:15 PM 76.8 °F 66.6 °F 70% 30.06 in 10.0 mi SW 8.1 mph - N/A   Clear
2:16 PM 76.8 °F 66.7 °F 71% 30.06 in 10.0 mi SW 8.1 mph - N/A   Clear
2:35 PM 76.3 °F 65.8 °F 70% 30.06 in 10.0 mi WSW 6.9 mph - N/A   Clear
2:36 PM 76.3 °F 66.0 °F 70% 30.05 in 10.0 mi WSW 6.9 mph - N/A   Clear
2:59 PM 77.5 °F 67.1 °F 70% 30.05 in 10.0 mi West 6.9 mph - N/A   Clear
3:17 PM 76.6 °F 66.0 °F 70% 30.04 in 10.0 mi WSW 8.1 mph - N/A   Clear
3:35 PM 77.0 °F 65.8 °F 68% 30.04 in 10.0 mi WSW 8.1 mph - N/A   Clear
3:36 PM 77.0 °F 65.8 °F 68% 30.04 in 10.0 mi WSW 9.2 mph - N/A   Clear
3:55 PM 76.8 °F 65.8 °F 69% 30.04 in 10.0 mi WNW 9.2 mph - N/A   Clear
3:56 PM 76.6 °F 65.8 °F 69% 30.04 in 10.0 mi West 8.1 mph - N/A   Clear
4:15 PM 77.0 °F 65.5 °F 67% 30.04 in 10.0 mi West 4.6 mph - N/A   Clear
4:20 PM 77.5 °F 65.8 °F 67% 30.04 in 10.0 mi West 4.6 mph - N/A   Clear
4:37 PM 78.4 °F 65.5 °F 64% 30.03 in 10.0 mi WNW 6.9 mph - N/A   Clear
4:56 PM 77.2 °F 64.9 °F 66% 30.03 in 10.0 mi West 4.6 mph - N/A   Clear
5:15 PM 78.3 °F 65.3 °F 64% 30.02 in 10.0 mi WNW 4.6 mph - N/A   Clear
5:16 PM 78.4 °F 65.3 °F 64% 30.02 in 10.0 mi WNW 4.6 mph - N/A   Clear
5:35 PM 78.4 °F 64.4 °F 62% 30.02 in 10.0 mi West 5.8 mph - N/A   Clear
5:59 PM 78.1 °F 64.8 °F 63% 30.03 in 10.0 mi West 4.6 mph - N/A   Clear
6:17 PM 77.9 °F 65.1 °F 65% 30.03 in 10.0 mi Calm Calm - N/A   Clear
6:35 PM 76.8 °F 65.7 °F 68% 30.03 in 10.0 mi SW 8.1 mph - N/A   Clear
6:36 PM 76.6 °F 65.7 °F 69% 30.03 in 10.0 mi SW 9.2 mph - N/A   Clear
6:55 PM 75.2 °F 65.3 °F 71% 30.03 in 10.0 mi West 3.5 mph - N/A   Clear
6:56 PM 75.2 °F 65.3 °F 71% 30.04 in 10.0 mi WNW 3.5 mph - N/A   Clear
7:15 PM 73.8 °F 65.8 °F 76% 30.03 in 10.0 mi WSW 3.5 mph - N/A   Clear
7:38 PM 73.4 °F 66.2 °F 78% 30.04 in 10.0 mi WSW 4.6 mph - N/A   Clear
7:56 PM 72.7 °F 66.7 °F 82% 30.04 in 10.0 mi West 4.6 mph - N/A   Clear
8:15 PM 72.1 °F 67.3 °F 85% 30.04 in 10.0 mi West 4.6 mph - N/A   Clear
8:16 PM 72.0 °F 67.3 °F 85% 30.04 in 10.0 mi West 3.5 mph - N/A   Clear
8:35 PM 71.6 °F 67.5 °F 87% 30.04 in 10.0 mi Calm Calm - N/A   Clear
8:36 PM 71.6 °F 67.5 °F 87% 30.03 in 10.0 mi Calm Calm - N/A   Clear
8:59 PM 71.1 °F 67.3 °F 88% 30.03 in 10.0 mi Calm Calm - N/A   Clear
9:17 PM 69.3 °F 67.3 °F 93% 30.02 in 10.0 mi Calm Calm - N/A   Clear
9:35 PM 68.2 °F 66.9 °F 96% 30.03 in 10.0 mi Calm Calm - N/A   Clear
9:55 PM 66.7 °F 65.7 °F 96% 30.03 in 7.0 mi Calm Calm - N/A   Clear
9:56 PM 66.6 °F 65.7 °F 97% 30.03 in 7.0 mi Calm Calm - N/A   Clear
10:15 PM 66.9 °F 65.8 °F 96% 30.03 in 7.0 mi Calm Calm - N/A   Clear
10:20 PM 66.6 °F 65.7 °F 97% 30.03 in 7.0 mi Calm Calm - N/A   Clear
10:38 PM 65.1 °F 64.2 °F 97% 30.04 in 5.0 mi Calm Calm - N/A   Clear
10:56 PM 66.7 °F 65.8 °F 97% 30.04 in 5.0 mi Calm Calm - N/A   Clear
11:35 PM 63.7 °F 63.0 °F 97% 30.04 in 7.0 mi Calm Calm - N/A   Clear
11:36 PM 63.9 °F 63.0 °F 97% 30.04 in 7.0 mi Calm Calm - N/A   Clear
11:59 PM 65.3 °F 64.4 °F 97% 30.04 in 4.0 mi Calm Calm - N/A   Clear